Карточка аэропорта UACK

Внимание!
Информация на этой странице в стадии наполнения.
Если вы не увидели какой-то информации, или заметили неточность - пожалуйста сообщите нам!
Спасибо!
Команда RU-STAFF
Название аэропортаКокшетау
Название аэропорта (англ.)Kokshetau
Превышение889 ft. (271 m.)
Координаты53°19.8', 69°35.802'
Высота перехода10000ft
Эшелон переходаFL120, QNH<733:FL130
Коды ответчика7264-7267
Зона ОрВДАстана РПИ (UACN)
Данные METARUACK 250900Z 14004MPS 9999 BKN033 20/12 Q1006 NOSIG RMK QFE731/0974
Проноз погоды (TAF)UACK 250809Z 2509/2518 15005MPS 9999 BKN030 TEMPO 2509/2515 11006MPS
NOTAMshow/hide NOTAM
AWOS   TABLE

Информация о ВПП

ВПП Длина ВПП (м.) Покрытие Курс ВПП Частота ILS
022850Асфальтобетон21110.3
202850Асфальтобетон201109.5

Диспетчерские позиции




Спутниковое изображение